Location: Red n Blue Observatory
(38.4831°N, 87.0953°W)
Time: 13:54:20
(UTC-04:00)

BlueWalker 3 - Pass Details

Date: 10 September 2024
Orbit: 472 x 485 km, 53.2° (Epoch: 11 October)

Event Time Altitude Azimuth Distance (km) Brightness Sun altitude
Rises 21:56:41 0° 315° (NW) 2,559 6.8 -22.1°
Reaches altitude 10° 21:58:54 10° 321° (NW) 1,679 5.5 -22.5°
Enters shadow 22:02:02 46° 6° (N) 672 2.6 -23.0°
